User: anonymous   Login
Location: Unspecified
(0.0000°N, 0.0000°E)
Time: 09:09:42
(UTC+00:00)
Language:

COSMOS-2414 - Orbit

View from above orbital plane
View from above orbital plane
View from above satellite
View from above satellite

Ground track
Ground track

The orbit data is extracted from the following two-line orbital elements,

1 28521U 05002A   18110.10232629  .00000064  00000-0  40277-4 0  9995
2 28521  82.9485 136.8225 0039851 182.2510 177.8503 13.87598509670849
Epoch (UTC): 20 April 2018 02:27:20
Eccentricity: 0.0039851
inclination: 82.9485°
perigee height: 908 km
apogee height: 966 km
right ascension of ascending node: 136.8225°
argument of perigee: 182.2510°
revolutions per day: 13.87598509
mean anomaly at epoch: 177.8503°
orbit number at epoch: 67084

The dashed part of the orbit path shows where the satellite is in the earth's shadow,  

DLR